Tracking 29892 objects as of 21-Nov-2024
HD Live streaming from Space Station
objects crossing your sky now

TITAN 3C TRANSTAGE DEB

Track TITAN 3C TRANSTAGE DEB now!
10-day predictions


NORAD ID: 2050
Int'l Code: 1965-082JL
Perigee: 672.2 km
Apogee: 793.1 km
Inclination: 32.3 °
Period: 99.3 minutes
Semi major axis: 7103 km
RCS: 0.0716 m2 (small)
Launch date: October 15, 1965
Source: United States (US)
Launch site: AIR FORCE EASTERN TEST RANGE (AFETR)

Note: This is SATELLITE DEBRIS
Your satellite tracking list
Your tracking list is empty




NASA's NSSDC Master Catalog

Two Line Element Set (TLE):
1 02050U 65082JL  24325.41521128  .00001462  00000-0  34678-3 0  9992
2 02050  32.2659 327.3756 0085055  54.3336 306.5191 14.50046305 75236
Source of the keplerian elements: AFSPC